GFSNE_con_3kmhel_105.txt.gz
Helicity
-42 -56 96 145 194 211 220 198 156 102 132 186 248 249 281 295 282 258 240 287 300 356 374 400 409 417 388 353 317 410 285 245 234 214 154 125 111 102
-20 68 114 146 171 193 195 225 247 236 216 224 257 289 283 275 278 283 221 233 267 285 324 365 346 354 350 309 329 364 270 277 247 257 223 193 86 85
107 118 124 161 174 202 209 200 232 274 264 237 286 315 323 316 260 214 204 236 240 220 254 258 314 289 294 338 346 328 266 265 306 301 298 266 200 254
104 130 132 175 163 153 187 194 231 250 283 260 249 360 347 180 182 234 229 211 234 195 204 199 223 218 226 234 208 229 258 241 269 354 415 498 470 646
113 130 153 196 186 226 241 253 269 294 289 209 248 169 281 161 221 218 255 204 229 214 243 237 243 209 189 154 165 114 178 278 399 509 698 643 660 434
205 232 262 263 245 248 269 296 254 264 302 240 149 168 272 194 221 225 256 240 233 235 245 239 250 261 270 257 258 243 235 251 292 374 390 395 426 382
295 327 352 382 447 450 343 400 307 310 183 298 271 266 236 247 256 247 212 234 226 252 267 285 265 255 243 210 196 196 206 216 222 221 253 284 290 258
451 461 397 361 397 445 453 394 420 268 221 257 240 278 296 202 246 250 235 237 217 224 230 221 189 207 191 195 182 171 170 166 158 150 156 175 198 212
408 439 490 487 484 396 351 184 358 244 260 267 235 217 191 251 236 252 254 237 216 212 223 208 221 270 248 220 198 164 146 133 136 133 122 142 154 174
572 521 499 500 385 322 128 208 187 312 256 178 164 200 202 203 201 197 171 187 203 211 243 182 246 293 266 265 270 305 379 419 385 373 326 246 152 137
507 478 388 335 254 283 262 240 267 273 256 242 221 247 317 391 366 266 292 249 213 226 233 274 266 209 184 189 240 327 343 320 314 342 335 362 401 350
359 258 218 279 322 326 260 234 271 236 220 244 271 303 333 347 360 264 220 209 199 141 228 207 188 173 102 68 204 139 224 284 257 208 232 226 208 168
215 142 197 265 258 279 274 231 220 188 210 207 210 230 243 244 231 227 223 210 225 211 187 171 164 162 202 186 124 104 152 202 214 236 206 143 92 69
147 130 145 221 247 238 203 248 238 169 149 153 161 169 167 162 152 144 139 128 121 123 100 122 128 153 160 150 152 110 121 136 165 136 139 182 195 141
187 260 311 276 263 217 247 229 155 110 102 110 121 120 109 93 94 107 111 112 109 115 136 144 155 150 139 120 109 87 74 58 60 98 52 57 87 113
251 230 218 199 196 167 153 144 100 84 73 62 61 60 66 90 97 105 109 118 124 137 122 110 99 88 94 95 97 89 94 125 117 91 86 8 6 41
168 197 207 167 150 138 128 118 103 85 86 66 68 73 77 81 99 94 108 121 119 122 119 99 88 89 94 96 101 106 84 42 35 50 53 46 47 70
154 146 151 128 113 96 82 80 83 78 74 70 71 77 90 85 90 91 95 102 107 97 93 96 87 71 56 56 58 78 75 81 71 45 42 15 -34 30
134 119 114 88 57 78 73 75 76 71 64 62 65 63 71 77 92 94 96 92 83 74 73 66 66 66 53 55 53 23 68 70 64 47 58 49 -21 5
110 83 81 79 84 94 90 89 72 59 48 49 54 64 78 83 96 95 83 73 66 58 55 54 57 57 54 53 69 97 17 78 71 24 6 -5 5 65
107 107 100 101 101 96 76 66 53 59 49 59 67 73 81 86 86 77 64 54 48 51 49 50 53 24 65 73 81 117 152 98 28 39 59 51 69 85
105 106 105 104 91 83 70 63 68 63 55 55 55 58 72 74 73 65 55 51 52 50 50 64 63 68 74 74 109 167 206 224 191 124 119 147 137 126
89 103 105 98 89 79 71 75 54 49 45 43 44 59 66 68 59 53 53 58 54 54 59 68 80 82 108 137 167 238 273 286 257 227 255 234 241 208

GFSNE_con_3kmhel_111.txt.gz
Helicity
286 331 279 223 193 149 163 96 105 81 67 71 104 96 125 164 183 170 190 159 132 109 93 110 149 91 99 131 121 115 98 119 127 116 90 122 105 165
285 169 188 192 122 106 74 106 112 117 107 117 124 110 95 100 100 96 124 152 243 281 314 272 241 213 232 215 241 188 199 202 183 170 157 167 148 129
181 156 128 126 97 78 100 86 111 164 156 50 96 81 130 181 269 259 295 291 266 347 366 249 269 241 278 272 311 302 346 359 315 270 252 253 218 178
138 117 46 75 57 80 91 94 120 128 122 91 108 224 298 311 300 300 276 314 339 266 321 306 342 349 366 355 307 351 376 341 326 328 343 335 329 308
126 93 85 99 108 115 123 123 128 141 193 228 283 329 299 286 258 232 250 225 217 314 349 318 345 385 380 391 390 407 373 354 340 289 299 324 327 313
169 160 156 132 121 125 137 135 156 220 277 301 301 274 301 276 206 215 200 227 294 200 284 254 314 323 353 355 331 362 352 319 333 328 349 355 341 354
218 217 187 200 276 261 214 253 267 258 279 231 259 303 240 185 225 165 219 173 115 177 209 220 167 173 198 252 268 335 302 333 339 343 351 347 313 307
290 293 296 322 373 400 437 476 388 312 341 321 299 254 317 171 100 213 159 95 107 166 144 165 132 175 168 164 228 268 306 351 348 357 341 357 348 333
413 432 425 375 379 425 443 471 512 417 370 250 182 245 215 130 149 196 171 127 105 100 71 60 90 129 138 149 204 229 300 326 337 345 369 353 331 315
503 503 505 488 461 514 470 438 431 394 312 253 194 201 191 190 178 144 139 106 92 93 108 70 106 126 102 91 63 196 248 270 264 255 264 272 274 276
614 581 612 594 526 361 357 330 416 344 216 249 266 283 278 276 230 139 193 154 91 120 148 124 82 90 52 26 160 178 183 168 178 199 171 168 175 178
768 723 681 552 480 400 362 324 281 256 149 182 186 211 242 237 252 158 124 104 88 42 114 121 130 118 -11 -22 161 86 108 76 137 121 129 138 154 135
829 816 690 517 465 466 386 312 163 148 160 174 213 200 175 153 123 114 109 85 93 81 74 117 96 112 131 152 137 89 55 95 67 72 60 106 110 114
733 563 476 335 298 277 244 220 211 181 170 162 138 145 126 125 131 113 109 94 90 72 77 132 146 154 158 153 146 104 93 76 73 73 103 82 47 44
475 273 274 208 196 226 240 247 211 185 145 107 105 99 101 85 91 89 86 88 92 104 134 129 135 125 133 125 124 115 100 99 68 104 108 93 79 70
239 157 157 159 181 178 198 224 144 92 94 80 75 62 48 44 44 42 48 87 99 113 97 89 81 82 108 112 109 120 121 152 129 129 114 106 99 85
183 162 142 151 174 162 102 82 96 88 88 75 66 57 50 39 42 39 37 48 66 88 108 91 47 55 76 71 109 109 147 158 155 138 98 119 118 107
173 145 160 138 110 82 92 91 94 94 80 65 35 29 29 23 25 12 19 49 61 61 74 79 72 70 74 81 5 116 164 173 173 146 132 152 166 154
191 168 153 114 85 91 93 91 93 74 46 34 24 31 35 10 19 22 25 34 42 52 64 62 64 58 79 137 206 115 177 203 213 230 211 207 216 234
159 127 111 107 109 115 114 94 65 47 34 52 57 36 39 31 34 21 21 30 54 60 77 80 76 80 104 184 273 416 115 212 272 300 273 256 265 243
134 133 128 133 130 111 80 72 61 65 68 61 53 58 55 46 41 35 32 38 42 60 82 99 94 71 179 204 277 360 409 236 256 293 301 294 279 249
121 133 130 120 104 96 90 71 84 90 78 63 76 75 54 58 55 43 49 56 59 65 83 102 107 129 145 157 297 397 485 506 448 201 201 209 229 265
128 118 103 96 91 85 77 94 99 74 61 75 84 70 60 77 63 55 60 53 54 63 56 80 122 138 177 226 376 459 448 442 437 329 127 84 193 355

GFSNE_con_3kmhel_114.txt.gz
Helicity
326 305 412 493 388 376 235 243 212 109 66 60 83 89 97 108 91 56 70 226 244 239 249 305 330 357 369 337 377 237 216 226 248 245 248 222 202 217
298 284 274 426 329 256 209 206 132 116 62 63 77 63 101 152 215 206 258 291 351 353 378 358 349 373 335 314 276 306 281 284 302 302 305 291 247 262
326 271 325 322 275 171 180 128 100 86 80 72 70 152 160 213 263 284 306 324 262 307 334 325 344 361 326 278 324 295 304 349 341 367 322 291 328 332
289 275 322 105 115 177 128 93 79 93 93 74 186 201 238 225 256 277 302 257 217 314 344 325 254 302 254 369 274 328 335 309 365 366 363 345 342 330
300 291 164 137 161 161 142 138 139 144 175 189 239 215 238 299 248 220 234 292 252 300 338 330 299 306 311 289 280 314 309 253 252 277 288 295 297 280
360 276 254 176 159 149 152 163 181 209 212 229 245 293 268 234 176 134 158 255 220 277 318 249 211 215 228 260 252 270 257 237 252 266 262 251 251 259
320 309 248 232 266 249 197 202 216 236 248 257 277 273 264 254 261 228 209 215 165 177 147 160 121 125 134 172 175 201 181 213 230 268 298 307 304 299
329 319 269 254 311 360 393 465 354 287 282 273 310 321 355 290 271 274 191 150 148 177 150 171 111 130 129 161 183 172 160 229 224 244 264 253 257 274
259 284 311 313 330 360 427 482 544 523 440 311 298 255 260 282 260 228 178 104 53 81 74 56 93 90 100 103 81 76 158 206 238 255 220 229 226 224
395 391 394 382 361 369 462 488 483 474 416 387 322 312 253 202 144 75 78 79 38 41 80 4 31 55 30 -13 -2 68 148 199 205 218 217 223 205 191
465 445 442 423 455 454 445 469 492 445 373 292 314 247 221 220 158 101 157 119 68 62 106 41 -6 -11 -43 -69 -25 52 72 104 131 117 134 117 130 133
604 648 639 593 581 555 462 474 444 408 252 261 222 167 144 161 173 116 59 37 2 -57 31 12 12 -23 -144 -177 28 -19 34 11 42 44 40 47 60 99
727 706 693 711 652 681 681 560 387 187 144 90 80 87 115 126 82 43 37 29 29 -20 -13 -7 -48 -15 15 40 32 34 32 96 65 57 20 13 18 50
790 729 686 666 662 629 497 262 181 146 118 124 127 135 104 86 85 75 43 -1 -23 -47 -34 34 11 -5 5 82 106 98 130 85 79 74 58 46 28 30
520 490 522 362 285 209 200 210 153 127 111 119 93 75 82 80 53 8 -4 10 7 10 49 26 18 23 36 78 116 173 113 109 71 80 120 115 124 105
534 354 248 242 243 206 188 197 190 167 128 112 95 67 31 12 7 10 4 29 37 67 36 25 24 28 59 76 108 160 149 155 165 152 165 180 171 152
227 217 234 209 192 171 177 174 144 126 115 87 73 47 26 15 16 -3 -12 -10 -13 33 90 64 20 11 27 21 169 165 173 221 219 207 173 208 216 200
187 155 154 146 152 147 141 133 122 123 101 73 51 44 46 41 23 -8 -17 -6 36 73 73 46 37 57 83 60 56 166 178 248 262 229 189 262 330 282
170 143 143 152 151 131 119 118 111 88 71 59 64 63 30 10 7 -3 6 31 60 58 55 39 34 22 95 178 283 112 153 197 247 336 321 338 402 430
157 156 152 121 106 107 103 92 74 64 70 74 58 37 31 17 26 33 36 35 44 56 57 43 14 24 79 179 244 419 181 226 305 414 425 364 368 334
150 135 123 126 121 113 93 78 70 75 62 47 40 36 40 43 43 35 29 27 33 40 70 86 61 49 139 166 202 300 408 243 248 399 503 479 417 335
138 136 122 124 112 87 68 72 79 58 49 54 55 53 55 45 44 37 35 34 40 47 81 101 88 55 36 48 145 204 353 381 308 183 185 256 310 303
125 121 115 98 87 85 91 71 60 62 67 63 61 61 58 62 53 43 37 32 39 56 27 91 95 56 57 67 114 205 209 214 246 225 103 75 24 -34

GFSNE_con_3kmhel_117.txt.gz
Helicity
305 293 292 299 278 327 353 318 351 283 254 270 190 163 101 102 144 154 183 220 260 240 247 260 281 300 323 354 342 296 316 359 299 246 184 248 208 209
353 341 383 376 366 358 353 364 283 266 209 142 161 111 86 155 251 254 253 307 320 302 295 296 272 260 277 303 347 382 329 317 305 252 313 286 293 293
396 443 517 373 331 289 258 305 263 249 191 172 105 115 206 200 283 327 307 242 242 285 322 252 250 296 295 264 254 272 258 228 216 223 242 189 257 262
447 496 490 383 188 197 290 210 276 189 186 65 139 175 203 254 315 347 299 299 218 260 287 330 227 255 238 224 263 189 189 179 181 181 220 250 241 239
356 399 374 260 185 288 219 166 193 198 175 134 172 197 258 291 299 266 283 284 267 304 261 267 181 220 224 278 196 170 223 219 215 213 213 222 217 221
280 359 159 236 308 209 214 248 215 196 187 235 247 262 254 299 278 265 257 234 209 239 235 207 180 156 165 185 158 157 155 146 200 228 229 231 221 203
526 486 483 397 401 372 290 257 215 212 220 260 298 310 310 299 246 223 219 226 195 270 222 143 87 115 126 141 127 142 131 149 167 187 192 197 193 184
616 467 372 397 411 423 469 499 379 280 311 315 333 373 356 265 266 279 243 185 186 198 224 158 94 146 97 95 110 99 107 138 160 178 151 139 128 154
322 367 351 360 407 459 550 586 584 561 473 342 364 312 306 327 275 293 273 199 194 169 108 45 67 69 71 51 49 46 85 149 180 166 173 153 168 176
348 354 350 333 325 381 477 546 542 515 472 394 346 320 338 341 337 258 184 158 12 1 53 -16 25 42 40 20 17 72 121 170 106 94 98 103 101 110
425 383 352 349 322 343 428 419 442 500 470 513 478 483 521 453 194 58 103 84 27 14 48 -8 -15 -9 -31 -75 -58 -0 2 -32 -25 8 12 22 45 85
473 477 416 403 397 424 369 354 393 360 402 416 398 327 235 184 142 80 42 31 21 -8 56 -0 9 2 -118 -153 -58 -30 -53 -93 -65 -57 -25 -5 25 87
556 541 489 513 547 530 530 555 525 387 326 260 209 157 116 97 82 80 59 27 13 -17 37 4 -17 -28 -43 -18 -27 -63 -87 -21 22 8 2 18 37 46
747 711 654 669 715 613 532 400 305 190 146 162 168 145 112 107 90 53 28 -0 -27 -26 -2 -1 -38 -51 -40 -2 15 -24 11 25 7 -10 14 11 -28 -13
646 610 626 598 532 449 324 268 215 197 173 159 143 126 116 79 49 25 15 36 12 -11 -9 -16 -25 -22 3 43 37 5 33 75 -4 39 38 36 51 50
639 576 407 324 326 298 270 231 168 139 142 137 126 99 71 72 68 57 56 56 35 15 6 7 -3 13 47 45 -8 18 30 28 78 45 66 91 80 71
430 352 345 323 248 222 205 177 158 158 153 127 116 101 78 60 55 38 22 3 6 31 49 36 17 11 28 20 6 52 45 38 51 80 66 100 130 127
295 246 245 209 189 159 165 169 161 152 139 117 102 84 77 68 42 21 7 14 31 32 24 24 29 60 141 44 31 53 46 50 68 102 91 118 173 218
271 212 191 162 153 153 151 139 137 131 114 100 88 87 70 53 37 34 32 31 33 26 20 23 40 81 100 50 16 40 101 100 171 227 104 146 223 288
196 174 166 142 144 140 125 121 118 104 103 101 98 89 75 59 47 37 24 34 38 46 55 35 33 61 36 39 41 120 30 103 110 156 232 251 164 229
132 139 141 136 129 126 117 111 106 109 102 92 89 86 71 50 38 21 15 23 26 62 79 59 23 6 26 16 23 50 73 42 63 77 155 79 83 85
124 136 130 127 119 115 109 96 96 98 103 99 88 68 58 37 31 34 43 36 40 53 66 31 4 13 12 4 11 10 42 58 87 43 -8 7 18 40
114 121 120 122 114 100 91 97 106 108 97 80 67 59 47 43 43 40 31 28 33 42 42 62 27 22 22 28 14 9 8 24 27 22 27 21 7 10